Showing default

COSMOS 1560, 14999

Orbit data source: Space-Track

COSMOS 1560, 14999 is a payload satellite owned by GUKOS (CIS) in LEO that was launched on Mon, 28 May 1984 UTC via a KOSMOS 11K65M launch vehicle from the Plesetsk Missile And Space Complex (PKMTR). Payloads include a variety of satellites, spacecraft, and rockets equipped with specific instruments for various scientific and technological missions. These include communications satellites like Starlink; space stations such as the ISS; scientific satellites like the Hubble; Earth observation satellites from companies like Planet Labs, Umbra, and HawkEye 360; GPS; miniature CubeSats for education and research; and military/defense satellites.

Loading next visibility...
COSMOS 1560 details
Identifier
14999, 1984-052B
Orbit
LEO
Last TLE update1 day ago
Origin
Flag of CISGUKOS (CIS)
ManufacturerNPO PM
MissionDefense Communications
Bus & MotorSTRELA-1 11F625, Unknown motor
Mass60 kg wet, 60 kg dry
Launch date (UTC)
1984-05-28 (41 years ago)
Launch vehicle
KOSMOS 11K65M
Launch site
Plesetsk Missile And Space Complex (PKMTR)
Object type
Payload
Rocket body
Debris
Shape & HBRSphere, 0.8 m
Radar Cross Section0.588 m², Medium (>0.1 m² and < 1m²)

Expand to show TLE details & history

TLE from 1 day ago
0 COSMOS 1560
1 14999U 84052B   25035.47031870 -.00000014  00000-0  14419-4 0  9995
2 14999  74.0114  39.3577 0013017  38.6535  75.7575 12.46108044850837
Epoch: 2025-02-04T11:17Z
Definitive object data (Epoch: 2025-02-04T11:17:15.535Z)
Latitude61.06603°
Longitude-115.88198°
Altitude1,488.362 km
Speed7.126 km/s
True Right ascension12h 33m 13s
True Declination60° 56' 01"
Sunlit
Object was in daylight at TLE epoch
Visualization TLE readout
Latitude-66.27417°
Longitude-46.01487°
Altitude1,513.949 km
Speed7.104 km/s
Apparent Right ascension09h 18m 34s
Apparent Declination-77° 29' 09"
Sunlit
Object is in daylight
Visualization observer readout
Local Sidereal Time18:59:21
Azimuth191.029° SSW
Elevation-49.719°
Doppler factor1
Orbital elements
Apogee altitude1,488.885 km
Perigee altitude1,468.43 km
Semi-major axis7,856.794 km
Eccentricity0.0013017
Inclination74.0114°
RAAN39.3577°
Arg. of periapsis38.6535°
True anomaly75.90214°
Mean anomaly75.7575°
Eccentric anomaly75.82981°
Mean motion3.11656 °/min
BSTAR0.000014419
Orbital period115.51 mins
Loading maneuver chart data...
Loading historical data...
Loading historical data...
Loading historical data...
Loading historical data...
Loading historical data...
Loading historical data...
Loading historical data...

COSMOS 1560 Visibility forecast

Observer location: undefined°, undefined

Span
Click to sort rows by Start time (UTC) header in descending order
Start Az.
Max El. time (UTC)
Max El. Az.
Max El.
End time (UTC)
End Az.
10 mins2025-02-05 23:24:27.399Z126.646° SE2025-02-05 23:29:27.399Z88.58° E18.201°2025-02-05 23:34:27.399Z51.675° ENE
16 mins2025-02-06 01:18:27.399Z200.641° SSW2025-02-06 01:26:27.399Z333.29° NNW44.627°2025-02-06 01:34:27.399Z17.819° NNE
9 mins2025-02-06 03:21:27.399Z279.578° WNW2025-02-06 03:25:27.399Z311.532° NW18.409°2025-02-06 03:30:27.399Z349.712° N
12 mins2025-02-06 09:30:27.399Z7.32° NNE2025-02-06 09:36:27.399Z56.739° ENE22.295°2025-02-06 09:42:27.399Z102.158° ESE
16 mins2025-02-06 11:27:27.399Z338.208° N2025-02-06 11:35:27.399Z216.023° SW44.304°2025-02-06 11:43:27.399Z169.059° S
6 mins2025-02-06 13:28:27.399Z293.901° NW2025-02-06 13:31:27.399Z272.288° WNW13.763°2025-02-06 13:34:27.399Z250.748° W
|